Flag for Hungary Weather past 2 weeks in Budapest, Hungary

Now
41 °F

Sunny.


Feels Like: 35 °F
Forecast: 39 / 47 °F
Wind: 10 mph from Southwest

Location: Ferenc Liszt International Airport

Current Time: Mar 31, 2015 at 8:43:30 AM

Latest Report: Mar 31, 2015 at 8:00 AM


Visibility: 10 mi

Pressure: 29.83 "Hg

Humidity: 70%

Dew point: 32 °F

Location of BudapestLocation

Historic Weather in Budapest — Graph

°F

Budapest temperature yesterday

Maximum temperature yesterday: 54 °F (at 12:30 PM)
Minimum temperature yesterday: 41 °F (at 11:00 PM)
Average temperature yesterday: 48 °F

Past Weeks' High & Low Weather Summary

 TemperatureHumidityPressure
High64 °F (Mar 26, 1:30 PM)100% (Mar 24, 5:30 AM)30.57 "Hg (Mar 24, 5:30 AM)
Low25 °F (Mar 21, 2:30 AM)19% (Mar 19, 4:00 PM)29.50 "Hg (Mar 30, 12:30 PM)
Average46 °F63%30.04 "Hg
* Reported Mar 16 6:00 AM — Mar 31 7:30 AM, Budapest, Weather by CustomWeather, © 2015

Note: Actual official high and low records may vary slightly from our data, if they occured in-between our weather recording intervals... More about our weather records

Advertising

Budapest weather history for previous 24 hours

 ConditionsComfort  
Time TempWeatherWind HumidityBarometerVisibility
7:30 AM
Tue, Mar 31
39 °FSunny.12 mph75%29.83 "Hg10 mi
7:00 AM37 °FClear.10 mph81%29.83 "Hg10 mi
6:30 AM36 °FClear.7 mph81%29.83 "Hg10 mi
6:00 AM37 °FClear.8 mph75%29.83 "Hg10 mi
5:30 AM37 °FClear.8 mph81%29.83 "Hg10 mi
5:00 AM39 °FClear.13 mph75%29.83 "Hg10 mi
4:30 AM41 °FClear.16 mph70%29.83 "Hg10 mi
4:00 AM39 °FClear.12 mph75%29.83 "Hg10 mi
3:30 AM39 °FClear.13 mph75%29.83 "Hg10 mi
3:00 AM39 °FClear.12 mph75%29.83 "Hg10 mi
2:30 AM39 °FClear.14 mph75%29.83 "Hg10 mi
2:00 AM39 °FClear.12 mph75%29.83 "Hg10 mi
1:30 AM41 °FClear.14 mph70%29.83 "Hg10 mi
1:00 AM43 °FPassing clouds.12 mph66%29.80 "HgN/A
12:30 AM41 °FClear.5 mph66%29.80 "Hg10 mi
12:00 AM41 °FClear.16 mph76%29.80 "Hg10 mi
11:00 PM
Mon, Mar 30
41 °FClear.12 mph70%29.74 "Hg10 mi
10:30 PM43 °FClear.16 mph66%29.74 "Hg10 mi
10:00 PM45 °FClear.20 mph61%29.71 "Hg10 mi
9:30 PM45 °FClear.20 mph61%29.68 "Hg10 mi
9:00 PM45 °FClear.18 mph61%29.68 "Hg10 mi
8:30 PM45 °FClear.16 mph66%29.65 "Hg10 mi
8:00 PM45 °FPassing clouds.22 mph71%29.65 "HgN/A
7:30 PM46 °FPartly sunny.22 mph66%29.65 "HgN/A
7:00 PM50 °FScattered showers. Scattered clouds.14 mph54%29.59 "HgN/A
6:30 PM52 °FSunny.15 mph58%29.56 "Hg10 mi
6:00 PM54 °FSunny.17 mph63%29.56 "Hg10 mi
5:30 PM52 °FSunny.14 mph72%29.56 "Hg10 mi
5:00 PM52 °FSunny.9 mph82%29.56 "Hg10 mi
4:30 PM50 °FBroken clouds.10 mph88%29.56 "HgN/A
4:00 PM50 °FSprinkles. Partly sunny.8 mph88%29.56 "HgN/A
3:30 PM50 °FSprinkles. Broken clouds.10 mph88%29.56 "HgN/A
3:00 PM50 °FSprinkles. Broken clouds.14 mph88%29.56 "Hg5 mi
2:30 PM50 °FSprinkles. Broken clouds.9 mph82%29.53 "Hg5 mi
2:00 PM52 °FSprinkles. Broken clouds.6 mph77%29.50 "HgN/A
1:30 PM52 °FSprinkles. Broken clouds.3 mph72%29.53 "HgN/A
1:00 PM52 °FSprinkles. Broken clouds.5 mph67%29.50 "HgN/A
12:30 PM54 °FBroken clouds.9 mph63%29.50 "HgN/A
12:00 PM52 °FBroken clouds.9 mph72%29.53 "HgN/A
11:30 AM52 °FBroken clouds.10 mph72%29.53 "HgN/A
11:00 AM50 °FPassing clouds.8 mph88%29.53 "HgN/A
10:30 AM48 °FSunny.8 mph94%29.53 "Hg10 mi
10:00 AM48 °FPartly sunny.7 mph94%29.53 "HgN/A
9:30 AM46 °FLight rain. Broken clouds.6 mph93%29.53 "HgN/A
9:00 AM46 °FLight rain. Broken clouds.8 mph93%29.53 "HgN/A
8:30 AM46 °FLight rain. Broken clouds.7 mph93%29.56 "HgN/A
8:00 AM46 °FLight rain. Partly sunny.7 mph93%29.53 "HgN/A
Weather by CustomWeather, © 2015

See weather overviewHow to use our weather pages